| time (UTC) | temp F | wind direction | speed knots | gust knots | rain 1hr in | rain 24hr in | rain mn in | humidity % | barometer mb |
| 20260505184503 | 57 | 216 | 3.5 | 7.8 | 0.00 | 0.00 | 0.00 | 79 | 1015.5 |
| 20260505184003 | 57 | 218 | 3.5 | 7.8 | 0.00 | 0.00 | 0.00 | 79 | 1015.5 |
| 20260505183503 | 57 | 219 | 2.6 | 7.0 | 0.00 | 0.00 | 0.00 | 79 | 1015.5 |
| 20260505183003 | 57 | 226 | 2.6 | 7.0 | 0.00 | 0.00 | 0.00 | 79 | 1015.5 |
| 20260505182503 | 58 | 173 | 2.6 | 7.0 | 0.00 | 0.00 | 0.00 | 78 | 1015.5 |
| 20260505182217 | 58 | 153 | 2.6 | 4.3 | 0.00 | 0.00 | 0.00 | 79 | 1015.5 |
| 20260505181503 | 58 | 194 | 1.7 | 3.5 | 0.00 | 0.00 | 0.00 | 78 | 1015.5 |
| 20260505181003 | 57 | 132 | 1.7 | 3.5 | 0.00 | 0.00 | 0.00 | 79 | 1015.5 |
| 20260505180503 | 57 | 202 | 1.7 | 6.1 | 0.00 | 0.00 | 0.00 | 79 | 1015.5 |
| 20260505180003 | 57 | 215 | 1.7 | 6.1 | 0.00 | 0.00 | 0.00 | 80 | 1015.1 |
| 20260505175503 | 57 | 195 | 1.7 | 5.2 | 0.00 | 0.00 | 0.00 | 79 | 1015.5 |
| 20260505175003 | 57 | 184 | 1.7 | 4.3 | 0.00 | 0.00 | 0.00 | 79 | 1015.5 |
| 20260505174503 | 57 | 148 | 1.7 | 4.3 | 0.00 | 0.00 | 0.00 | 79 | 1015.5 |
| 20260505174003 | 57 | 126 | 0.9 | 2.6 | 0.00 | 0.00 | 0.00 | 80 | 1015.5 |
| 20260505173503 | 57 | 107 | 1.7 | 3.5 | 0.00 | 0.00 | 0.00 | 79 | 1015.5 |
| 20260505173003 | 57 | 98 | 1.7 | 3.5 | 0.00 | 0.00 | 0.00 | 79 | 1015.5 |
| 20260505172503 | 57 | 102 | 1.7 | 3.5 | 0.00 | 0.00 | 0.00 | 80 | 1015.5 |
| 20260505172003 | 57 | 97 | 1.7 | 3.5 | 0.00 | 0.00 | 0.00 | 81 | 1015.5 |
| 20260505171718 | 57 | 96 | 1.7 | 3.5 | 0.00 | 0.00 | 0.00 | 80 | 1015.1 |
| 20260505171003 | 56 | 246 | 2.6 | 7.0 | 0.00 | 0.00 | 0.00 | 82 | 1015.1 |
| 20260505170503 | 56 | 250 | 2.6 | 7.0 | 0.00 | 0.00 | 0.00 | 82 | 1015.1 |
| 20260505170003 | 56 | 220 | 2.6 | 7.0 | 0.00 | 0.00 | 0.00 | 82 | 1015.1 |
| 20260505165503 | 56 | 225 | 2.6 | 7.0 | 0.00 | 0.00 | 0.00 | 82 | 1015.1 |
| 20260505165003 | 56 | 217 | 2.6 | 6.1 | 0.00 | 0.00 | 0.00 | 82 | 1015.5 |
| 20260505164717 | 56 | 216 | 2.6 | 7.8 | 0.00 | 0.00 | 0.00 | 82 | 1015.1 |
| 20260505164217 | 56 | 200 | 2.6 | 7.8 | 0.00 | 0.00 | 0.00 | 82 | 1015.5 |
| 20260505163503 | 56 | 198 | 2.6 | 7.8 | 0.00 | 0.00 | 0.00 | 82 | 1015.1 |
| 20260505163003 | 56 | 188 | 1.7 | 7.8 | 0.00 | 0.00 | 0.00 | 82 | 1015.5 |
| 20260505162503 | 56 | 173 | 1.7 | 5.2 | 0.00 | 0.00 | 0.00 | 82 | 1015.1 |
| 20260505162003 | 56 | 163 | 1.7 | 4.3 | 0.00 | 0.00 | 0.00 | 83 | 1015.1 |
| 20260505161717 | 56 | 181 | 1.7 | 4.3 | 0.00 | 0.00 | 0.00 | 82 | 1015.1 |
| 20260505161003 | 56 | 132 | 1.7 | 4.3 | 0.00 | 0.00 | 0.00 | 82 | 1015.1 |
| 20260505160503 | 56 | 13 | 2.6 | 6.1 | 0.00 | 0.00 | 0.00 | 82 | 1015.1 |
| 20260505153003 | 56 | 165 | 2.6 | 7.0 | 0.00 | 0.00 | 0.00 | 83 | 1014.8 |
| 20260505152504 | 56 | 145 | 2.6 | 5.2 | 0.00 | 0.00 | 0.00 | 83 | 1014.8 |
| 20260505152003 | 56 | 126 | 2.6 | 5.2 | 0.00 | 0.00 | 0.00 | 83 | 1014.8 |
| 20260505151503 | 56 | 120 | 1.7 | 4.3 | 0.00 | 0.00 | 0.00 | 83 | 1014.8 |
| 20260505151003 | 56 | 203 | 1.7 | 4.3 | 0.00 | 0.00 | 0.00 | 83 | 1014.8 |
| 20260505150503 | 55 | 185 | 1.7 | 4.3 | 0.00 | 0.00 | 0.00 | 83 | 1014.8 |
| 20260505125003 | 55 | 74 | 2.6 | 4.3 | 0.00 | 0.00 | 0.00 | 85 | 1013.4 |
| 20260505124503 | 55 | 72 | 1.7 | 3.5 | 0.00 | 0.00 | 0.00 | 85 | 1013.4 |
| 20260505124217 | 55 | 87 | 1.7 | 5.2 | 0.00 | 0.00 | 0.00 | 85 | 1013.4 |
| 20260505123503 | 55 | 122 | 2.6 | 5.2 | 0.00 | 0.00 | 0.00 | 85 | 1013.1 |
| 20260505123217 | 55 | 127 | 2.6 | 5.2 | 0.00 | 0.00 | 0.00 | 85 | 1013.4 |
| 20260505122503 | 55 | 139 | 2.6 | 5.2 | 0.00 | 0.00 | 0.00 | 85 | 1013.1 |
| 20260505122003 | 55 | 119 | 1.7 | 4.3 | 0.00 | 0.00 | 0.00 | 85 | 1013.1 |
| 20260505121503 | 55 | 94 | 1.7 | 5.2 | 0.00 | 0.00 | 0.00 | 85 | 1013.4 |
| 20260505121003 | 55 | 124 | 2.6 | 5.2 | 0.00 | 0.00 | 0.00 | 85 | 1013.4 |
| 20260505120503 | 54 | 189 | 2.6 | 7.0 | 0.00 | 0.00 | 0.00 | 85 | 1013.4 |
| 20260505120003 | 54 | 206 | 3.5 | 7.0 | 0.00 | 0.00 | 0.00 | 85 | 1013.4 |
| 20260505115503 | 54 | 167 | 2.6 | 7.0 | 0.00 | 0.00 | 0.00 | 85 | 1013.1 |
| 20260505115003 | 54 | 160 | 1.7 | 7.0 | 0.00 | 0.00 | 0.00 | 85 | 1013.1 |
| 20260505114503 | 54 | 131 | 2.6 | 5.2 | 0.00 | 0.00 | 0.00 | 85 | 1013.1 |
| 20260505114003 | 54 | 101 | 2.6 | 7.0 | 0.00 | 0.00 | 0.00 | 86 | 1013.1 |
| 20260505113503 | 54 | 55 | 2.6 | 7.0 | 0.00 | 0.00 | 0.00 | 86 | 1013.1 |
| 20260505113003 | 54 | 29 | 2.6 | 7.0 | 0.00 | 0.00 | 0.00 | 86 | 1012.7 |
| 20260505112503 | 54 | 281 | 2.6 | 7.0 | 0.00 | 0.00 | 0.00 | 86 | 1013.1 |
| 20260505112003 | 54 | 35 | 1.7 | 5.2 | 0.00 | 0.00 | 0.00 | 86 | 1013.1 |
| 20260505111503 | 54 | 107 | 1.7 | 5.2 | 0.00 | 0.00 | 0.00 | 86 | 1012.7 |
| 20260505111003 | 54 | 169 | 1.7 | 5.2 | 0.00 | 0.00 | 0.00 | 86 | 1012.7 |
| 20260505110503 | 54 | 189 | 1.7 | 5.2 | 0.00 | 0.00 | 0.00 | 87 | 1013.1 |
| 20260505102003 | 55 | 187 | 1.7 | 3.5 | 0.00 | 0.00 | 0.00 | 86 | 1012.4 |
| 20260505101503 | 55 | 200 | 1.7 | 5.2 | 0.00 | 0.00 | 0.00 | 86 | 1012.4 |
| 20260505101003 | 54 | 170 | 2.6 | 5.2 | 0.00 | 0.00 | 0.00 | 86 | 1012.4 |
| 20260505100717 | 55 | 140 | 1.7 | 4.3 | 0.00 | 0.00 | 0.00 | 86 | 1012.4 |
| 20260505100003 | 55 | 110 | 1.7 | 4.3 | 0.00 | 0.00 | 0.00 | 87 | 1012.4 |
| 20260505095717 | 55 | 101 | 1.7 | 4.3 | 0.00 | 0.00 | 0.00 | 87 | 1012.4 |
| 20260505095003 | 55 | 110 | 1.7 | 4.3 | 0.00 | 0.00 | 0.00 | 86 | 1012.4 |
| 20260505094503 | 55 | 136 | 1.7 | 5.2 | 0.00 | 0.00 | 0.00 | 86 | 1012.4 |
| 20260505094003 | 54 | 120 | 1.7 | 5.2 | 0.00 | 0.00 | 0.00 | 87 | 1012.4 |
| 20260505093503 | 55 | 93 | 1.7 | 4.3 | 0.00 | 0.00 | 0.00 | 86 | 1012.4 |
| 20260505093003 | 55 | 98 | 1.7 | 3.5 | 0.00 | 0.00 | 0.00 | 86 | 1012.4 |
| 20260505092503 | 55 | 110 | 1.7 | 3.5 | 0.00 | 0.00 | 0.00 | 86 | 1012.1 |
| 20260505092003 | 55 | 104 | 1.7 | 3.5 | 0.00 | 0.00 | 0.00 | 86 | 1012.1 |
| 20260505091503 | 55 | 131 | 1.7 | 3.5 | 0.00 | 0.00 | 0.00 | 86 | 1012.1 |
| 20260505091003 | 55 | 134 | 1.7 | 3.5 | 0.00 | 0.00 | 0.00 | 86 | 1011.7 |
| 20260505090503 | 55 | 169 | 1.7 | 7.0 | 0.00 | 0.00 | 0.00 | 85 | 1012.1 |
| 20260505090003 | 55 | 189 | 1.7 | 7.0 | 0.00 | 0.00 | 0.00 | 85 | 1012.1 |
| 20260505085716 | 55 | 199 | 1.7 | 7.0 | 0.00 | 0.00 | 0.00 | 85 | 1011.7 |
| 20260505085003 | 55 | 153 | 1.7 | 4.3 | 0.00 | 0.00 | 0.00 | 85 | 1012.1 |
| 20260505084503 | 55 | 121 | 1.7 | 5.2 | 0.00 | 0.00 | 0.00 | 85 | 1012.1 |
| 20260505084003 | 55 | 92 | 1.7 | 5.2 | 0.00 | 0.00 | 0.00 | 85 | 1012.1 |
| 20260505083503 | 55 | 105 | 1.7 | 3.5 | 0.00 | 0.00 | 0.00 | 84 | 1012.1 |
| 20260505083003 | 56 | 127 | 1.7 | 4.3 | 0.00 | 0.00 | 0.00 | 84 | 1011.7 |
| 20260505082503 | 56 | 133 | 1.7 | 4.3 | 0.00 | 0.00 | 0.00 | 84 | 1011.7 |
| 20260505082003 | 56 | 133 | 1.7 | 4.3 | 0.00 | 0.00 | 0.00 | 84 | 1011.7 |
| 20260505081503 | 56 | 133 | 0.9 | 3.5 | 0.00 | 0.00 | 0.00 | 83 | 1011.7 |
| 20260505081003 | 56 | 154 | 0.9 | 4.3 | 0.00 | 0.00 | 0.00 | 83 | 1011.4 |
| 20260505080503 | 56 | 137 | 0.9 | 4.3 | 0.00 | 0.00 | 0.00 | 83 | 1011.7 |
| 20260505080003 | 56 | 141 | 1.7 | 4.3 | 0.00 | 0.00 | 0.00 | 82 | 1011.4 |
| 20260505075718 | 57 | 160 | 1.7 | 4.3 | 0.00 | 0.00 | 0.00 | 82 | 1011.4 |
| 20260505075003 | 57 | 154 | 1.7 | 5.2 | 0.00 | 0.00 | 0.00 | 82 | 1011.4 |
| 20260505074503 | 57 | 144 | 1.7 | 5.2 | 0.00 | 0.00 | 0.00 | 81 | 1011.4 |
| 20260505074003 | 57 | 206 | 1.7 | 4.3 | 0.00 | 0.00 | 0.00 | 81 | 1011.4 |
| 20260505073503 | 57 | 240 | 1.7 | 6.1 | 0.00 | 0.00 | 0.00 | 81 | 1011.4 |
| 20260505073003 | 58 | 202 | 1.7 | 6.1 | 0.00 | 0.00 | 0.00 | 80 | 1011.4 |
| 20260505072718 | 58 | 185 | 1.7 | 6.1 | 0.00 | 0.00 | 0.00 | 80 | 1011.4 |
| 20260505072003 | 58 | 159 | 1.7 | 3.5 | 0.00 | 0.00 | 0.00 | 79 | 1011.0 |
| 20260505071503 | 58 | 170 | 1.7 | 4.3 | 0.00 | 0.00 | 0.00 | 79 | 1011.4 |
| 20260505071003 | 58 | 182 | 1.7 | 4.3 | 0.00 | 0.00 | 0.00 | 78 | 1011.4 |
| 20260505070503 | 59 | 202 | 1.7 | 5.2 | 0.00 | 0.00 | 0.00 | 78 | 1011.0 |
| 20260505070003 | 59 | 220 | 2.6 | 5.2 | 0.00 | 0.00 | 0.00 | 77 | 1011.0 |
| 20260505065503 | 59 | 220 | 2.6 | 5.2 | 0.00 | 0.00 | 0.00 | 77 | 1011.0 |
| 20260505065003 | 59 | 212 | 1.7 | 5.2 | 0.00 | 0.00 | 0.00 | 77 | 1011.0 |
| 20260505064503 | 60 | 194 | 1.7 | 4.3 | 0.00 | 0.00 | 0.00 | 77 | 1011.0 |
| 20260505064003 | 60 | 213 | 1.7 | 5.2 | 0.00 | 0.00 | 0.00 | 76 | 1011.0 |
| 20260505063503 | 60 | 223 | 2.6 | 5.2 | 0.00 | 0.00 | 0.00 | 76 | 1010.7 |
| 20260505063003 | 60 | 217 | 2.6 | 4.3 | 0.00 | 0.00 | 0.00 | 75 | 1010.7 |
| 20260505062503 | 61 | 214 | 2.6 | 4.3 | 0.00 | 0.00 | 0.00 | 75 | 1010.7 |
| 20260505062216 | 61 | 214 | 1.7 | 3.5 | 0.00 | 0.00 | 0.00 | 75 | 1010.7 |
| 20260505061503 | 61 | 213 | 1.7 | 4.3 | 0.00 | 0.00 | 0.00 | 73 | 1010.4 |
| 20260505061217 | 62 | 205 | 1.7 | 4.3 | 0.00 | 0.00 | 0.00 | 73 | 1010.7 |
| 20260505060718 | 62 | 218 | 1.7 | 4.3 | 0.00 | 0.00 | 0.00 | 72 | 1010.7 |
| 20260505060003 | 62 | 209 | 1.7 | 4.3 | 0.00 | 0.00 | 0.00 | 71 | 1010.7 |
| 20260505055503 | 63 | 230 | 2.6 | 5.2 | 0.00 | 0.00 | 0.00 | 70 | 1010.7 |
| 20260505055216 | 63 | 238 | 2.6 | 5.2 | 0.00 | 0.00 | 0.00 | 70 | 1010.4 |
| 20260505054503 | 63 | 224 | 1.7 | 4.3 | 0.00 | 0.00 | 0.00 | 68 | 1010.4 |
| 20260505054003 | 64 | 166 | 1.7 | 4.3 | 0.00 | 0.00 | 0.00 | 68 | 1010.4 |
| 20260505053503 | 64 | 154 | 0.9 | 2.6 | 0.00 | 0.00 | 0.00 | 67 | 1010.4 |
| 20260505053003 | 64 | 152 | 0.9 | 3.5 | 0.00 | 0.00 | 0.00 | 67 | 1010.4 |
| 20260505052717 | 64 | 176 | 0.9 | 3.5 | 0.00 | 0.00 | 0.00 | 66 | 1010.4 |
| 20260505052003 | 65 | 167 | 0.9 | 2.6 | 0.00 | 0.00 | 0.00 | 66 | 1010.0 |
| 20260505051503 | 65 | 134 | 0.9 | 2.6 | 0.00 | 0.00 | 0.00 | 65 | 1010.0 |
| 20260505051003 | 64 | 110 | 0.9 | 2.6 | 0.00 | 0.00 | 0.00 | 62 | 1010.0 |
| 20260505050503 | 64 | 99 | 0.9 | 2.6 | 0.00 | 0.00 | 0.00 | 62 | 1010.0 |
| 20260505041503 | 67 | 83 | 0.9 | 1.7 | 0.00 | 0.00 | 0.00 | 53 | 1009.7 |
| 20260505041218 | 67 | 81 | 0.9 | 1.7 | 0.00 | 0.00 | 0.00 | 54 | 1009.3 |
| 20260505040503 | 68 | 91 | 1.7 | 2.6 | 0.00 | 0.00 | 0.00 | 52 | 1009.3 |
| 20260505040003 | 68 | 87 | 1.7 | 2.6 | 0.00 | 0.00 | 0.00 | 51 | 1009.3 |
| 20260505035503 | 69 | 85 | 0.9 | 2.6 | 0.00 | 0.00 | 0.00 | 51 | 1009.0 |
| 20260505035003 | 69 | 83 | 1.7 | 5.2 | 0.00 | 0.00 | 0.00 | 50 | 1009.0 |
| 20260505034716 | 69 | 79 | 2.6 | 5.2 | 0.00 | 0.00 | 0.00 | 50 | 1009.0 |
| 20260505034003 | 70 | 59 | 1.7 | 3.5 | 0.00 | 0.00 | 0.00 | 47 | 1009.0 |
| 20260505033503 | 71 | 42 | 0.9 | 2.6 | 0.00 | 0.00 | 0.00 | 46 | 1008.7 |
| 20260505033003 | 72 | 37 | 0.9 | 2.6 | 0.00 | 0.00 | 0.00 | 47 | 1008.7 |
| 20260505032503 | 72 | 42 | 0.9 | 2.6 | 0.00 | 0.00 | 0.00 | 45 | 1008.7 |
| 20260505032003 | 73 | 78 | 0.9 | 1.7 | 0.00 | 0.00 | 0.00 | 45 | 1008.7 |
| 20260505031503 | 73 | 153 | 0.0 | 1.7 | 0.00 | 0.00 | 0.00 | 45 | 1008.7 |
| 20260505031003 | 74 | 122 | 0.0 | 1.7 | 0.00 | 0.00 | 0.00 | 44 | 1008.7 |
| 20260505030503 | 74 | 241 | 0.9 | 3.5 | 0.00 | 0.00 | 0.00 | 43 | 1008.7 |
| 20260505030003 | 74 | 238 | 0.9 | 3.5 | 0.00 | 0.00 | 0.00 | 43 | 1008.3 |
| 20260505025503 | 75 | 160 | 0.0 | 1.7 | 0.00 | 0.00 | 0.00 | 43 | 1008.3 |
| 20260505025003 | 75 | 79 | 0.9 | 1.7 | 0.00 | 0.00 | 0.00 | 43 | 1008.3 |
| 20260505024503 | 76 | 75 | 0.9 | 2.6 | 0.00 | 0.00 | 0.00 | 42 | 1008.3 |
| 20260505024003 | 76 | 327 | 0.9 | 3.5 | 0.00 | 0.00 | 0.00 | 42 | 1008.3 |
| 20260505023503 | 76 | 310 | 0.9 | 3.5 | 0.00 | 0.00 | 0.00 | 41 | 1008.3 |
| 20260505023003 | 76 | 305 | 0.9 | 3.5 | 0.00 | 0.00 | 0.00 | 40 | 1008.0 |
| 20260505022503 | 77 | 333 | 0.9 | 3.5 | 0.00 | 0.00 | 0.00 | 39 | 1008.3 |
| 20260505022003 | 77 | 321 | 1.7 | 5.2 | 0.00 | 0.00 | 0.00 | 40 | 1008.3 |
| 20260505021503 | 77 | 315 | 1.7 | 5.2 | 0.00 | 0.00 | 0.00 | 40 | 1008.0 |
| 20260505021003 | 78 | 287 | 1.7 | 5.2 | 0.00 | 0.00 | 0.00 | 39 | 1008.3 |
| 20260505020503 | 78 | 291 | 1.7 | 4.3 | 0.00 | 0.00 | 0.00 | 38 | 1008.0 |
| 20260505020003 | 79 | 313 | 1.7 | 5.2 | 0.00 | 0.00 | 0.00 | 38 | 1008.3 |
| 20260505015503 | 79 | 309 | 1.7 | 5.2 | 0.00 | 0.00 | 0.00 | 38 | 1008.3 |
| 20260505015003 | 80 | 275 | 1.7 | 6.1 | 0.00 | 0.00 | 0.00 | 37 | 1008.0 |
| 20260505014718 | 79 | 254 | 2.6 | 6.1 | 0.00 | 0.00 | 0.00 | 37 | 1008.3 |
| 20260505014003 | 80 | 265 | 1.7 | 6.1 | 0.00 | 0.00 | 0.00 | 35 | 1008.0 |
| 20260505013503 | 81 | 17 | 1.7 | 3.5 | 0.00 | 0.00 | 0.00 | 33 | 1008.0 |
| 20260505013003 | 81 | 210 | 1.7 | 6.1 | 0.00 | 0.00 | 0.00 | 32 | 1008.0 |
| 20260505012503 | 81 | 205 | 1.7 | 6.1 | 0.00 | 0.00 | 0.00 | 34 | 1008.0 |
| 20260505012003 | 82 | 74 | 0.9 | 4.3 | 0.00 | 0.00 | 0.00 | 34 | 1008.3 |
| 20260505011503 | 81 | 95 | 0.9 | 3.5 | 0.00 | 0.00 | 0.00 | 33 | 1008.3 |
| 20260505011003 | 82 | 165 | 1.7 | 4.3 | 0.00 | 0.00 | 0.00 | 34 | 1008.0 |
| 20260505010503 | 81 | 169 | 1.7 | 4.3 | 0.00 | 0.00 | 0.00 | 34 | 1008.3 |
| 20260505010003 | 81 | 184 | 1.7 | 5.2 | 0.00 | 0.00 | 0.00 | 35 | 1008.3 |
| 20260505005503 | 80 | 210 | 2.6 | 5.2 | 0.00 | 0.00 | 0.00 | 35 | 1008.3 |
| 20260505005003 | 80 | 225 | 3.5 | 7.8 | 0.00 | 0.00 | 0.00 | 35 | 1008.3 |
| 20260505004503 | 80 | 220 | 4.3 | 9.6 | 0.00 | 0.00 | 0.00 | 35 | 1008.3 |
| 20260505004003 | 81 | 217 | 3.5 | 9.6 | 0.00 | 0.00 | 0.00 | 35 | 1008.0 |
| 20260505003503 | 82 | 236 | 1.7 | 7.0 | 0.00 | 0.00 | 0.00 | 34 | 1008.0 |
| 20260505003003 | 81 | 235 | 1.7 | 7.0 | 0.00 | 0.00 | 0.00 | 34 | 1008.3 |
| 20260505002503 | 81 | 233 | 1.7 | 4.3 | 0.00 | 0.00 | 0.00 | 34 | 1008.3 |
| 20260505002003 | 81 | 223 | 1.7 | 6.1 | 0.00 | 0.00 | 0.00 | 34 | 1008.3 |
| 20260505001503 | 81 | 218 | 2.6 | 6.1 | 0.00 | 0.00 | 0.00 | 33 | 1008.3 |
| 20260505001003 | 82 | 205 | 1.7 | 3.5 | 0.00 | 0.00 | 0.00 | 32 | 1008.3 |
| 20260505000717 | 82 | 193 | 1.7 | 4.3 | 0.00 | 0.00 | 0.00 | 33 | 1008.3 |
| 20260505000003 | 80 | 246 | 2.6 | 6.1 | 0.00 | 0.00 | 0.00 | 34 | 1008.3 |
| 20260504235503 | 80 | 247 | 2.6 | 7.0 | 0.00 | 0.00 | 0.00 | 35 | 1008.3 |
| 20260504235003 | 79 | 240 | 3.5 | 7.8 | 0.00 | 0.00 | 0.00 | 34 | 1008.7 |
| 20260504234503 | 81 | 220 | 2.6 | 7.8 | 0.00 | 0.00 | 0.00 | 32 | 1008.3 |
| 20260504234003 | 81 | 242 | 1.7 | 7.0 | 0.00 | 0.00 | 0.00 | 32 | 1008.7 |
| 20260504233503 | 80 | 242 | 1.7 | 7.0 | 0.00 | 0.00 | 0.00 | 32 | 1008.7 |
| 20260504233003 | 81 | 207 | 1.7 | 8.7 | 0.00 | 0.00 | 0.00 | 33 | 1008.7 |
| 20260504232503 | 79 | 217 | 2.6 | 8.7 | 0.00 | 0.00 | 0.00 | 34 | 1008.3 |
| 20260504232003 | 80 | 208 | 3.5 | 9.6 | 0.00 | 0.00 | 0.00 | 33 | 1008.7 |
| 20260504231503 | 80 | 192 | 2.6 | 9.6 | 0.00 | 0.00 | 0.00 | 33 | 1008.7 |
| 20260504231003 | 81 | 189 | 1.7 | 5.2 | 0.00 | 0.00 | 0.00 | 33 | 1008.7 |
| 20260504230503 | 80 | 220 | 1.7 | 5.2 | 0.00 | 0.00 | 0.00 | 34 | 1008.7 |
| 20260504230003 | 80 | 249 | 1.7 | 7.0 | 0.00 | 0.00 | 0.00 | 34 | 1008.7 |
| 20260504225503 | 79 | 230 | 2.6 | 10.4 | 0.00 | 0.00 | 0.00 | 35 | 1008.7 |
| 20260504225003 | 79 | 235 | 3.5 | 11.3 | 0.00 | 0.00 | 0.00 | 34 | 1008.7 |
| 20260504224503 | 79 | 253 | 3.5 | 11.3 | 0.00 | 0.00 | 0.00 | 36 | 1008.7 |
| 20260504224003 | 78 | 240 | 3.5 | 9.6 | 0.00 | 0.00 | 0.00 | 37 | 1009.0 |
| 20260504223717 | 78 | 223 | 4.3 | 9.6 | 0.00 | 0.00 | 0.00 | 36 | 1009.0 |
| 20260504223003 | 79 | 234 | 3.5 | 7.0 | 0.00 | 0.00 | 0.00 | 35 | 1009.0 |
| 20260504222503 | 79 | 226 | 2.6 | 9.6 | 0.00 | 0.00 | 0.00 | 35 | 1009.0 |
| 20260504222003 | 78 | 225 | 3.5 | 9.6 | 0.00 | 0.00 | 0.00 | 35 | 1009.0 |
| 20260504221503 | 79 | 237 | 3.5 | 8.7 | 0.00 | 0.00 | 0.00 | 34 | 1009.3 |
| 20260504221003 | 79 | 250 | 3.5 | 8.7 | 0.00 | 0.00 | 0.00 | 35 | 1009.3 |
| 20260504220503 | 78 | 241 | 3.5 | 8.7 | 0.00 | 0.00 | 0.00 | 35 | 1009.3 |
| 20260504220003 | 79 | 225 | 4.3 | 11.3 | 0.00 | 0.00 | 0.00 | 34 | 1009.3 |
| 20260504215716 | 79 | 218 | 3.5 | 11.3 | 0.00 | 0.00 | 0.00 | 35 | 1009.3 |
| 20260504215003 | 79 | 221 | 2.6 | 7.0 | 0.00 | 0.00 | 0.00 | 33 | 1009.3 |
| 20260504214503 | 79 | 229 | 2.6 | 7.0 | 0.00 | 0.00 | 0.00 | 32 | 1009.3 |
| 20260504214003 | 80 | 211 | 2.6 | 7.8 | 0.00 | 0.00 | 0.00 | 32 | 1009.3 |
| 20260504213503 | 78 | 220 | 3.5 | 9.6 | 0.00 | 0.00 | 0.00 | 33 | 1009.3 |
| 20260504213003 | 79 | 230 | 3.5 | 9.6 | 0.00 | 0.00 | 0.00 | 32 | 1009.3 |
| 20260504212503 | 79 | 242 | 3.5 | 8.7 | 0.00 | 0.00 | 0.00 | 31 | 1009.7 |
| 20260504212003 | 79 | 230 | 2.6 | 8.7 | 0.00 | 0.00 | 0.00 | 33 | 1009.3 |
| 20260504211503 | 81 | 196 | 1.7 | 5.2 | 0.00 | 0.00 | 0.00 | 32 | 1009.3 |
| 20260504211003 | 79 | 223 | 1.7 | 5.2 | 0.00 | 0.00 | 0.00 | 34 | 1009.3 |
| 20260504210503 | 80 | 216 | 1.7 | 5.2 | 0.00 | 0.00 | 0.00 | 32 | 1009.3 |
| 20260504210003 | 80 | 133 | 1.7 | 4.3 | 0.00 | 0.00 | 0.00 | 32 | 1009.3 |
| 20260504205503 | 80 | 148 | 1.7 | 4.3 | 0.00 | 0.00 | 0.00 | 33 | 1009.7 |
| 20260504205003 | 78 | 213 | 2.6 | 8.7 | 0.00 | 0.00 | 0.00 | 34 | 1009.7 |
| 20260504204503 | 78 | 199 | 2.6 | 8.7 | 0.00 | 0.00 | 0.00 | 33 | 1009.7 |
| 20260504204003 | 78 | 138 | 2.6 | 7.8 | 0.00 | 0.00 | 0.00 | 34 | 1009.7 |
| 20260504203503 | 77 | 177 | 2.6 | 7.8 | 0.00 | 0.00 | 0.00 | 34 | 1009.7 |
| 20260504203003 | 78 | 226 | 1.7 | 5.2 | 0.00 | 0.00 | 0.00 | 33 | 1009.7 |
| 20260504202503 | 78 | 160 | 1.7 | 5.2 | 0.00 | 0.00 | 0.00 | 32 | 1009.7 |
| 20260504202003 | 78 | 207 | 2.6 | 8.7 | 0.00 | 0.00 | 0.00 | 34 | 1009.7 |
| 20260504201503 | 77 | 229 | 3.5 | 9.6 | 0.00 | 0.00 | 0.00 | 34 | 1009.7 |
| 20260504201003 | 77 | 199 | 2.6 | 9.6 | 0.00 | 0.00 | 0.00 | 34 | 1009.7 |
| 20260504200503 | 78 | 128 | 1.7 | 5.2 | 0.00 | 0.00 | 0.00 | 36 | 1009.7 |
| 20260504200003 | 77 | 192 | 1.7 | 7.0 | 0.00 | 0.00 | 0.00 | 35 | 1009.7 |
| 20260504195503 | 78 | 178 | 1.7 | 7.0 | 0.00 | 0.00 | 0.00 | 35 | 1009.7 |
| 20260504195003 | 77 | 173 | 2.6 | 7.8 | 0.00 | 0.00 | 0.00 | 36 | 1009.7 |
| 20260504194503 | 76 | 239 | 3.5 | 10.4 | 0.00 | 0.00 | 0.00 | 38 | 1009.7 |
| 20260504194003 | 77 | 247 | 3.5 | 10.4 | 0.00 | 0.00 | 0.00 | 37 | 1009.7 |
| 20260504193503 | 78 | 214 | 2.6 | 7.8 | 0.00 | 0.00 | 0.00 | 37 | 1009.7 |
| 20260504193217 | 77 | 235 | 1.7 | 7.8 | 0.00 | 0.00 | 0.00 | 36 | 1009.7 |
| 20260504192503 | 78 | 176 | 1.7 | 4.3 | 0.00 | 0.00 | 0.00 | 35 | 1009.7 |
| 20260504192003 | 77 | 149 | 1.7 | 7.0 | 0.00 | 0.00 | 0.00 | 36 | 1009.7 |
| 20260504191503 | 76 | 136 | 3.5 | 7.0 | 0.00 | 0.00 | 0.00 | 37 | 1009.7 |
| 20260504191003 | 76 | 151 | 2.6 | 7.0 | 0.00 | 0.00 | 0.00 | 39 | 1009.7 |
| 20260504190504 | 75 | 200 | 2.6 | 7.0 | 0.00 | 0.00 | 0.00 | 40 | 1010.0 |
| 20260504190003 | 75 | 247 | 2.6 | 6.1 | 0.00 | 0.00 | 0.00 | 40 | 1010.0 |
| 20260504185503 | 76 | 57 | 1.7 | 5.2 | 0.00 | 0.00 | 0.00 | 39 | 1010.0 |
| 20260504185003 | 75 | 121 | 1.7 | 5.2 | 0.00 | 0.00 | 0.00 | 41 | 1010.0 |